RAVAN

Last updated on Wed Oct 15 2025 00:03:48 GMT+0000 (Coordinated Universal Time)

1 41849U 16067B 25287.15172776 .00028618 00000+0 84337-3 0 9998 2 41849 98.0263 146.8826 0008828 143.0323 217.1528 15.34958747489722
UTC large
Height (km)
Speed (km/s)
/
Latitude / Longitude
Inclination (degrees)
Orbital Period (minutes)
Azimuth
Elevation
Range (km)
Doppler Factor

Next 0 passes for location: London (51.5072 / 0.1276)

Sorry there are no passes over London.